Torna al catalogo

STARLINK-33945

AttivoComunicazioniSSO
NORAD 64154·PAYLOAD·🇺🇸 United States

Lanciato May 27, 2025 da Vandenberg Space Force Base

Loading…

Prossimi Passaggi (prossime 24 ore)

TLE

AggiornatoSource: CelesTrak SupGP

Epoca: Sep 14, 2026, 22:31 UTC

1 64154C 25112J   26257.93868056  .00021000  00000+0  65214-3 0  2578
2 64154  97.2842 312.7552 0001502  85.7552 181.9304 15.33415872    15

Traccia STARLINK-33945 in tempo reale con AllMySat

Download on the App Store